Theta_e
343 341 341 343 341 340 340 338 338 340 339 339 339 338 338 338 339 339 340 340 340 340 340 340 340 339 340 339 340 341 341 341 341 342 342 342 342 341 341 342 343 343 342 342 341 340 340 340 340 340 339 337 336 336 336 337 338 338 337 337 337 336 336 335 336 336 332 332 334 334 337 337 336 336 335 333 334 335 335 337 335 333 333 334 334
342 341 342 342 341 341 340 338 337 338 339 339 339 338 337 337 337 338 339 340 340 340 340 340 340 340 341 340 341 341 341 340 341 341 341 341 341 341 341 342 342 341 342 340 338 337 337 337 338 339 338 337 336 336 336 337 337 336 335 335 335 335 336 335 336 334 332 333 334 333 337 337 336 337 334 333 335 336 336 337 335 332 332 333 334
342 342 343 342 341 341 340 338 337 337 337 338 339 338 336 336 336 337 338 338 339 339 340 340 340 340 340 340 340 340 341 340 340 339 339 340 340 341 341 341 340 341 341 338 337 337 337 336 337 337 338 336 336 337 336 336 335 334 333 332 333 334 336 337 336 335 336 336 335 334 335 336 336 336 334 335 337 336 336 336 334 331 330 332 334
342 343 342 342 341 340 339 339 337 337 337 338 337 337 337 337 336 336 336 337 337 338 339 339 339 340 340 340 340 340 339 340 339 339 339 339 339 340 340 340 340 341 340 339 339 339 339 339 337 336 337 335 335 337 337 336 335 334 333 333 332 332 335 336 336 337 338 337 337 334 333 334 334 335 335 336 336 336 336 334 332 329 330 333 334
342 342 341 341 341 340 339 338 337 337 337 337 337 337 337 337 336 336 336 336 336 336 338 339 339 339 340 339 339 339 338 338 338 339 340 339 340 341 341 341 341 341 340 339 340 340 339 339 338 337 336 335 335 336 337 337 336 334 333 333 331 331 331 332 333 335 336 336 337 336 334 332 331 334 335 335 335 335 334 333 331 331 332 334 335
341 340 341 340 340 340 338 339 338 337 337 337 337 336 336 337 337 337 337 336 336 336 336 337 338 338 339 339 339 339 338 338 337 337 339 340 340 340 340 340 341 340 339 339 339 339 338 338 338 338 336 333 332 333 335 335 335 334 334 333 333 332 331 332 333 333 333 334 334 335 336 333 329 333 335 332 333 332 332 332 331 333 334 335 336
340 340 340 340 340 339 339 339 339 338 338 338 337 336 336 337 337 336 336 336 337 337 337 337 337 338 339 338 339 339 339 339 337 337 337 339 340 340 339 339 340 339 338 338 338 337 339 338 338 338 335 330 328 330 330 331 331 331 332 332 333 333 333 334 335 334 335 335 334 336 336 335 329 331 334 331 331 331 331 331 330 333 335 336 335
339 338 338 337 338 338 337 337 338 338 338 338 338 338 337 337 337 337 336 336 336 337 337 337 338 338 338 338 338 339 339 339 339 338 337 337 338 339 339 339 339 339 338 337 336 336 339 338 337 337 335 331 329 329 330 330 331 332 332 332 333 334 334 333 334 335 337 337 335 336 335 337 330 329 335 332 331 333 333 333 332 334 336 336 335
337 336 334 334 335 336 336 336 338 338 338 338 339 338 337 337 337 337 336 335 335 336 337 337 337 338 338 338 338 337 337 337 337 337 337 335 335 336 336 336 338 339 337 335 335 335 338 339 336 336 334 333 332 330 331 332 333 334 334 333 333 333 333 332 335 336 337 336 334 335 335 337 332 328 335 334 332 333 333 334 334 335 336 336 335
335 335 334 334 335 336 337 338 338 337 336 338 338 337 336 336 335 334 334 333 333 334 334 335 335 336 336 336 335 334 333 333 334 334 334 333 333 333 333 333 335 336 336 335 335 335 337 339 337 337 334 331 333 332 332 333 333 334 334 333 333 332 332 332 336 337 336 335 333 334 334 336 333 328 335 335 332 334 333 333 334 336 336 336 335
336 336 335 335 337 337 338 338 338 336 335 335 336 334 334 334 334 333 332 333 332 333 333 333 333 333 334 333 333 332 332 331 331 331 331 331 332 332 332 332 333 334 335 334 335 335 335 337 337 337 334 329 331 334 333 333 334 334 334 333 332 330 331 332 336 337 336 336 335 334 333 335 333 329 335 334 331 334 333 333 332 334 336 335 335
337 336 336 336 338 337 337 337 337 335 333 333 334 334 334 334 334 332 332 333 332 333 334 334 334 333 333 332 331 331 331 330 330 329 330 330 331 331 331 332 333 334 334 334 334 335 334 334 334 334 333 329 330 334 334 334 334 333 333 332 331 329 330 331 334 337 336 336 336 335 334 335 332 330 335 333 331 334 334 334 333 333 335 335 335
336 336 336 336 337 336 334 334 334 333 332 332 333 334 334 333 333 333 333 333 333 334 334 334 334 333 332 331 331 330 330 330 330 330 329 329 330 331 331 332 333 333 333 333 333 333 333 332 331 331 332 329 330 334 334 334 333 333 332 331 330 329 330 329 332 337 336 335 336 335 336 336 332 331 335 332 331 334 335 335 334 334 335 335 334
335 334 335 335 336 336 334 334 334 333 333 333 333 332 332 332 332 332 333 332 333 333 333 332 332 332 332 331 331 331 331 331 330 330 330 329 329 330 332 334 334 333 333 332 331 331 331 330 330 330 330 330 332 334 333 333 333 333 331 330 330 329 329 329 331 336 337 336 335 333 335 336 332 331 333 332 332 334 334 334 334 333 334 334 333
335 334 335 334 335 336 337 337 336 335 334 334 334 333 332 332 331 331 330 330 330 331 331 332 331 331 332 333 333 332 332 332 331 331 331 330 329 329 331 332 332 333 333 332 331 330 330 330 330 330 330 330 331 333 333 333 333 333 332 331 330 329 329 329 330 336 337 336 336 333 334 335 331 330 332 332 333 334 334 334 333 333 334 334 334
336 335 335 335 334 335 336 337 336 336 335 334 334 332 331 330 330 330 331 331 331 329 329 330 331 332 334 336 336 335 334 333 333 332 332 331 329 329 329 330 330 332 332 332 332 331 331 331 330 330 331 330 329 330 330 330 330 331 331 330 330 329 329 328 329 335 338 336 337 335 335 334 330 329 331 331 333 334 334 334 334 334 335 335 334
337 337 336 335 334 334 335 334 334 334 334 334 333 331 330 330 331 332 334 335 334 332 331 333 334 335 337 337 337 336 335 335 334 333 332 331 330 330 329 330 330 331 331 331 331 331 331 330 331 331 331 331 329 329 327 327 328 328 329 328 329 328 328 329 329 334 337 336 337 336 334 333 329 328 329 330 332 334 334 334 334 334 334 334 333
337 337 336 335 334 335 334 333 332 332 332 332 333 333 333 333 334 335 336 337 337 336 336 336 337 337 337 337 337 337 336 335 335 334 334 332 330 330 330 330 330 331 331 330 330 329 328 326 326 327 329 330 331 330 327 326 327 329 330 329 328 328 328 328 328 332 336 336 336 337 334 333 330 327 328 329 331 333 334 334 334 334 334 334 333
336 336 336 335 334 335 335 333 333 333 332 333 333 334 335 335 335 336 336 337 337 338 337 337 338 338 337 337 337 337 336 335 335 335 335 334 331 330 330 331 330 330 330 331 331 330 330 328 325 322 321 324 326 327 326 326 330 333 333 332 331 330 330 328 330 332 334 335 335 335 334 333 331 327 328 330 332 332 334 334 333 333 333 332 332
335 335 335 335 335 335 335 335 335 334 335 335 335 335 335 335 335 335 336 336 337 337 337 337 337 337 337 337 337 336 336 335 335 335 335 335 334 333 333 334 333 332 332 333 333 334 333 333 332 327 322 321 322 324 326 330 333 334 334 334 333 333 332 331 333 333 333 333 333 334 333 333 332 328 329 332 333 334 334 334 333 332 333 331 331
335 335 334 335 335 335 335 335 335 335 335 335 335 335 335 333 333 334 334 335 335 335 336 336 336 336 335 335 335 335 334 335 335 334 334 334 334 334 334 335 334 333 333 334 334 335 334 333 334 333 329 328 328 328 330 332 333 333 333 333 333 333 333 333 334 333 333 333 332 332 332 333 334 330 330 333 334 335 334 335 333 331 332 331 330
334 335 334 335 334 334 334 334 334 334 334 334 334 334 334 332 332 333 333 334 334 334 334 335 334 334 334 334 334 335 334 335 335 335 334 334 334 334 334 334 334 334 333 333 334 333 333 333 333 333 332 332 332 331 331 332 332 332 332 333 332 332 332 333 333 333 333 332 331 331 331 331 334 332 331 332 332 334 334 335 334 332 332 331 331
334 334 336 336 335 334 334 334 334 335 334 335 335 334 334 333 333 333 333 333 334 334 334 334 334 334 334 334 334 335 335 335 335 335 334 334 334 333 333 333 333 333 333 333 333 333 333 333 333 333 332 332 332 332 332 332 332 332 332 332 332 331 331 331 332 332 332 331 330 330 331 330 332 331 330 332 331 331 333 334 335 333 331 330 331
334 335 336 336 336 336 335 334 334 334 335 336 336 334 334 334 333 333 333 333 333 334 334 334 334 335 335 334 333 334 335 334 334 334 335 335 335 334 334 334 334 333 333 333 333 333 332 332 332 332 332 332 333 333 333 333 333 333 332 332 332 332 332 331 331 331 331 330 330 330 331 330 331 331 331 332 331 331 332 333 334 333 331 331 331
334 335 335 335 335 335 335 334 334 335 335 336 336 335 335 335 334 334 333 333 333 334 334 334 335 335 335 334 333 333 333 333 333 333 333 334 335 334 333 333 333 333 333 332 332 332 331 331 331 332 332 332 332 333 333 332 333 333 332 332 332 333 334 332 331 332 331 330 330 330 330 331 331 332 331 332 332 332 332 333 335 334 332 332 333
334 335 335 335 335 335 335 334 334 335 335 335 335 336 335 335 334 333 333 333 333 334 333 333 334 333 334 333 332 332 333 332 332 331 331 332 333 332 332 332 332 332 332 332 332 331 331 331 331 332 331 331 331 332 332 331 332 332 332 332 330 332 333 333 331 332 332 331 330 330 330 330 330 330 331 332 332 332 331 333 335 335 334 333 333
334 336 336 336 335 335 335 335 335 335 335 334 335 335 335 334 334 333 333 333 333 333 333 333 332 332 332 332 331 332 332 332 332 331 331 331 332 332 331 331 331 331 331 331 331 331 331 331 331 331 330 330 330 331 331 331 331 331 332 331 330 330 332 331 331 331 332 331 331 330 330 330 330 329 330 331 331 331 331 332 335 336 335 335 334
335 335 335 335 335 335 334 335 335 335 334 334 334 335 335 333 333 333 333 333 333 332 331 331 330 330 331 331 331 331 331 331 331 331 331 331 331 331 331 331 331 331 331 331 331 331 331 331 331 330 330 330 329 330 331 330 331 330 331 331 331 331 330 330 330 331 331 331 331 331 330 330 330 329 329 330 329 330 329 331 335 337 336 336 336
336 335 335 334 334 334 334 334 334 334 333 333 333 334 334 333 332 333 332 332 331 330 330 329 328 328 329 329 330 330 330 330 330 329 329 329 329 330 330 330 330 330 330 330 330 330 330 330 330 330 330 329 329 328 329 330 329 329 329 329 330 330 330 330 330 330 330 330 330 330 330 330 330 330 330 330 329 328 329 330 333 337 337 336 335
335 334 334 333 333 333 333 333 332 332 332 331 331 332 332 331 332 331 330 330 328 327 328 327 327 326 326 328 328 328 329 329 328 327 327 327 328 327 328 329 329 328 327 327 327 327 328 328 327 327 327 327 326 328 329 329 329 329 326 325 325 326 327 329 329 329 329 330 330 330 330 330 330 330 330 330 329 329 329 330 332 336 338 336 335
334 333 332 332 332 332 332 331 330 330 329 329 329 329 329 329 330 329 329 329 327 325 325 325 324 324 324 325 325 326 327 328 327 325 324 327 327 325 325 327 327 326 325 324 324 323 324 325 324 324 324 324 325 326 328 328 327 326 324 323 323 324 325 326 329 329 328 329 329 329 330 330 330 330 330 330 330 330 330 332 333 335 338 337 337
332 332 331 331 330 330 330 330 329 328 328 328 328 327 328 328 328 329 329 329 327 322 322 323 322 322 322 322 322 323 325 326 325 323 322 324 325 323 323 322 322 322 322 322 322 320 321 323 322 322 322 323 324 325 325 325 325 323 321 322 322 321 324 326 328 326 326 327 329 329 328 329 329 330 330 330 330 330 331 332 332 334 337 337 338
332 331 330 330 330 329 328 328 328 328 327 327 326 323 325 328 327 326 325 324 322 321 320 321 321 321 321 321 320 321 323 323 323 322 321 321 321 321 321 320 319 319 318 319 320 319 319 321 320 321 321 322 322 322 322 322 322 321 321 321 320 320 321 323 324 323 323 325 326 328 328 327 328 328 329 329 329 330 330 331 332 333 335 336 338
331 330 329 328 328 328 327 327 327 326 325 325 323 321 322 325 325 322 321 320 320 320 319 320 320 320 320 321 321 319 320 321 322 321 320 320 320 319 320 321 319 318 316 317 320 320 319 318 319 320 319 320 320 319 320 320 320 320 320 319 319 319 319 320 321 322 322 323 325 327 326 326 327 328 328 328 328 329 329 330 330 331 332 333 336
329 328 326 326 325 326 326 325 325 325 324 322 322 320 321 322 322 320 320 319 318 318 317 319 319 319 320 321 321 320 318 318 320 321 320 320 318 318 319 320 319 317 315 316 320 319 318 317 318 319 318 318 318 318 319 318 317 317 315 316 319 319 318 319 321 321 321 321 321 321 321 323 325 326 327 326 327 328 328 328 328 329 329 330 334
326 325 324 324 324 324 324 324 324 324 322 322 322 321 320 320 320 320 320 318 317 316 315 317 318 317 319 320 319 319 317 317 318 319 320 319 319 317 317 318 318 316 315 317 318 317 317 316 316 318 318 317 317 317 317 316 315 314 312 316 320 317 316 318 319 319 318 319 318 317 318 320 323 325 326 327 326 326 326 326 326 327 327 328 332
323 322 321 321 322 322 322 323 323 323 322 322 321 321 320 320 320 319 319 317 317 316 315 316 317 316 317 319 319 317 316 316 315 317 318 318 318 317 316 317 316 315 315 317 316 315 315 316 315 316 317 316 315 316 316 314 315 314 312 317 319 315 315 317 318 318 318 317 317 316 317 318 320 323 326 327 327 326 326 326 326 327 328 327 330
320 319 320 320 320 320 319 320 321 321 321 321 321 321 321 320 319 318 318 318 317 317 315 315 315 316 316 317 317 316 315 315 314 314 316 316 316 315 315 316 316 315 314 315 315 314 314 315 314 315 316 315 315 315 315 314 314 314 314 317 318 315 315 317 316 317 317 316 316 316 316 316 317 319 322 324 327 328 327 327 327 327 328 326 328
320 320 320 320 320 320 319 319 319 320 319 319 319 320 319 319 318 318 318 319 317 316 316 315 314 314 315 315 316 316 315 315 314 314 316 315 314 314 314 315 316 314 314 314 315 315 314 314 314 314 315 315 314 314 315 314 313 314 315 317 317 314 314 317 316 315 316 316 315 315 315 316 315 316 317 318 321 325 327 328 327 327 327 324 325
320 320 320 320 319 319 320 319 319 319 319 318 318 318 318 318 317 317 318 318 317 316 316 315 314 314 315 314 314 315 315 314 314 314 316 315 314 313 313 314 315 314 313 314 314 315 314 313 313 313 314 314 313 314 314 314 313 312 314 317 318 316 313 314 315 314 314 315 315 314 315 315 315 315 315 315 315 318 322 325 326 326 326 324 323
319 319 319 318 319 319 319 319 319 318 318 318 318 317 317 317 317 316 317 317 316 316 315 315 315 315 315 313 312 314 314 314 314 314 314 315 314 313 312 314 315 313 313 314 314 315 314 314 314 313 313 313 312 314 314 313 313 314 314 315 316 316 314 313 314 315 314 315 314 314 314 314 313 314 314 314 313 314 316 318 319 320 321 321 319
318 318 318 318 318 317 317 317 318 318 317 318 318 318 317 316 315 315 316 316 315 315 315 315 316 315 315 314 312 312 313 313 313 313 313 314 314 314 313 312 314 313 313 314 313 314 315 314 315 314 313 313 312 313 314 313 313 314 315 316 316 315 314 311 312 315 314 314 314 313 313 313 312 312 313 313 313 313 313 313 314 314 314 315 315
318 319 319 318 318 317 317 316 316 317 317 317 317 318 317 317 315 314 315 315 314 315 315 315 315 314 313 313 313 312 312 312 313 313 313 313 314 314 314 312 313 313 311 312 312 312 314 314 315 314 313 314 313 313 314 314 314 313 314 317 318 318 317 313 312 313 313 313 313 313 313 312 311 311 313 313 312 312 312 312 312 313 313 313 313
319 320 319 318 319 318 317 316 315 315 316 316 316 317 317 317 316 315 315 315 314 315 315 314 314 313 313 313 314 313 312 313 313 313 313 313 313 314 314 312 313 312 311 312 312 311 313 314 314 313 313 314 314 312 313 313 314 314 314 317 317 318 319 314 312 313 313 313 313 312 312 311 310 311 312 312 312 312 311 311 311 312 313 312 313
319 319 318 318 319 318 317 316 315 315 315 315 315 315 315 315 315 316 315 315 314 314 314 314 313 314 314 315 315 313 313 313 313 313 314 313 313 315 313 311 312 313 312 312 312 312 313 313 313 312 312 314 314 312 312 312 313 313 313 316 317 318 317 314 313 314 313 312 313 312 311 311 311 311 312 312 311 311 310 309 310 312 312 312 314
319 318 317 318 318 318 317 316 316 315 315 315 314 314 314 314 315 315 315 315 315 314 314 313 313 314 314 314 315 314 313 314 313 313 313 312 313 313 311 311 312 312 313 313 311 311 313 314 313 312 311 314 314 312 311 311 312 312 312 313 314 316 315 313 314 315 313 312 312 311 311 311 311 311 312 311 311 311 310 309 309 311 312 311 314
319 318 319 319 318 318 317 317 317 316 316 316 315 314 314 314 314 314 315 315 315 315 315 313 313 313 313 313 314 314 313 313 314 313 312 312 313 312 310 310 311 312 313 314 312 311 312 314 313 312 311 313 314 312 311 311 311 312 311 311 312 312 313 313 314 314 313 312 311 311 311 311 311 311 311 311 310 310 309 308 309 310 311 310 313
319 318 318 318 317 317 316 317 316 316 317 316 316 315 315 314 313 314 314 314 314 315 314 313 313 313 313 312 313 314 313 312 313 313 312 312 313 312 310 309 309 311 312 314 313 311 311 311 310 310 310 312 313 312 311 311 311 311 311 311 311 311 311 310 311 313 314 314 311 311 311 311 311 310 311 310 310 310 309 308 308 309 311 311 311
318 318 318 317 317 316 316 316 315 315 316 316 315 315 315 314 313 313 313 313 313 313 313 314 314 313 312 312 312 313 313 312 313 313 311 311 312 311 311 309 308 309 311 312 313 311 309 309 309 309 309 311 312 311 310 310 310 310 310 310 311 312 311 310 310 310 313 314 313 312 311 311 311 310 310 310 309 309 308 307 307 308 310 311 310
317 317 317 318 318 317 316 316 316 315 315 315 315 314 314 314 313 312 312 312 312 313 313 314 313 313 313 312 312 312 312 311 312 311 310 310 311 310 311 311 309 310 311 312 313 312 310 309 309 309 310 311 311 310 310 310 309 309 310 310 311 313 312 311 310 310 311 312 313 312 311 311 311 310 309 309 309 308 308 308 307 307 309 310 310
317 317 318 318 318 317 316 316 316 316 316 315 315 314 314 314 314 313 312 312 312 313 313 313 313 313 313 313 312 312 311 311 311 311 310 310 311 311 311 311 310 310 312 312 313 312 311 310 310 309 310 310 310 311 310 310 309 309 309 309 310 312 312 311 310 310 311 312 313 313 311 311 311 310 309 308 308 308 308 308 307 308 309 310 310
Wind_Speed
10 11 10 10 11 11 12 12 13 14 15 15 15 15 15 15 15 15 15 14 14 13 13 13 12 12 11 11 11 10 10 9 9 9 9 9 9 9 9 9 9 9 8 8 7 6 6 5 4 5 5 5 6 7 8 9 9 9 8 8 8 9 9 8 8 7 6 6 6 6 6 6 6 6 5 4 5 7 8 8 8 9 9 11 11
11 11 11 10 11 11 11 11 12 13 14 14 14 14 14 14 14 14 14 14 13 13 13 13 12 12 12 12 11 11 10 10 9 9 9 9 8 9 9 9 9 9 8 8 7 6 6 5 5 6 7 7 7 8 9 9 9 8 7 7 7 8 8 8 8 7 7 6 6 5 5 5 5 5 4 5 7 8 9 10 9 8 9 10 10
12 12 10 10 11 11 11 11 11 12 13 13 14 14 14 14 13 13 12 13 12 12 12 12 12 12 12 12 12 11 11 10 10 9 9 9 8 8 8 8 8 8 8 8 8 7 7 7 7 7 8 8 8 9 10 10 9 8 8 8 7 8 9 9 8 8 7 6 5 4 4 4 5 5 5 8 9 9 10 10 8 8 9 10 9
12 12 11 12 11 11 11 10 11 12 13 13 13 13 13 13 12 12 12 12 11 11 11 11 11 11 11 11 11 11 11 10 10 10 9 9 8 8 7 7 7 7 7 9 9 9 9 8 7 7 7 7 9 10 10 10 9 9 8 8 8 8 8 8 8 7 6 5 4 3 2 2 4 5 7 10 10 9 9 9 8 8 10 10 9
13 12 12 13 12 11 11 10 11 12 12 12 12 12 12 12 11 11 11 11 10 10 10 10 10 10 10 10 10 10 10 9 9 9 8 8 8 8 7 6 6 6 7 8 9 8 8 8 7 7 7 7 8 9 9 9 8 9 9 9 9 9 8 7 7 5 4 3 2 3 1 0 3 6 9 9 8 8 8 9 8 9 10 10 9
13 13 12 13 12 11 11 11 11 11 11 11 11 11 11 11 10 10 10 10 10 9 9 9 8 8 8 8 8 8 9 8 8 8 8 7 7 6 6 5 5 5 5 7 7 8 7 7 7 5 6 6 7 8 8 8 8 8 9 9 9 8 8 7 7 6 5 3 1 2 3 2 3 8 9 9 7 8 9 9 8 9 9 9 9
11 13 12 12 12 10 11 11 10 10 10 10 10 10 10 10 10 10 9 10 9 9 9 8 8 7 7 7 7 7 7 7 7 7 7 7 6 5 5 4 4 4 5 5 6 7 6 5 5 4 4 5 5 6 7 7 7 7 8 8 8 7 7 7 7 7 7 5 2 1 5 5 5 9 9 9 8 9 9 9 9 9 9 9 9
11 11 10 10 10 10 10 10 10 9 10 10 10 10 10 9 9 10 10 10 10 10 9 8 8 7 6 6 6 6 6 6 6 6 6 6 6 5 4 4 3 3 3 4 4 5 5 4 5 3 3 4 4 4 4 5 5 6 6 6 6 6 7 7 8 9 8 7 4 2 4 7 7 10 10 9 9 9 9 9 9 9 9 9 8
11 11 10 9 9 9 9 9 9 8 9 9 9 9 9 9 9 9 9 10 9 9 9 8 8 7 7 7 6 6 6 6 6 5 5 5 5 4 4 3 3 3 2 3 2 3 5 3 2 2 2 3 3 3 2 2 3 4 4 5 5 6 7 7 8 9 10 9 4 2 5 9 10 10 11 10 9 10 9 9 10 10 9 9 9
11 10 10 9 10 9 9 9 9 8 8 9 9 9 9 9 9 9 9 9 8 8 8 7 7 7 7 7 7 7 7 6 6 5 5 5 4 4 4 4 3 3 3 2 2 2 4 4 3 2 1 2 2 2 2 1 2 3 3 4 5 6 8 8 8 10 12 10 4 2 5 10 12 11 12 10 10 10 9 9 10 10 10 9 9
11 10 10 10 10 9 9 9 8 8 8 9 9 9 9 9 9 9 8 8 7 7 7 7 7 7 7 7 7 7 7 7 6 5 5 4 4 4 5 4 3 3 4 2 1 1 1 3 3 2 1 2 2 1 2 2 2 2 3 4 5 7 8 9 9 11 13 10 5 4 5 9 12 12 13 11 10 10 9 9 10 10 9 9 9
11 11 10 10 9 9 9 9 8 8 8 9 8 8 8 8 8 8 8 7 7 7 7 7 7 7 7 8 8 8 8 8 8 7 6 5 5 5 5 5 5 5 4 3 2 1 1 1 1 2 2 2 2 2 2 3 3 4 4 4 5 6 8 9 10 11 12 10 5 6 6 10 11 11 12 11 10 10 9 9 9 10 10 10 10
11 11 11 10 9 9 11 10 9 9 9 9 8 8 8 8 8 8 8 7 7 7 7 7 8 8 8 8 8 8 8 9 9 8 8 8 8 7 6 5 6 6 4 3 1 0 1 2 2 3 3 1 2 2 2 3 4 4 4 4 4 6 7 9 11 10 11 11 6 4 6 9 10 11 11 10 10 10 9 9 9 10 10 10 10
11 11 11 11 9 9 10 10 9 9 9 9 9 8 8 8 8 8 8 8 8 8 7 7 7 8 8 9 8 8 9 9 9 9 9 9 9 8 6 5 5 5 4 3 1 0 0 1 1 2 3 2 3 3 2 2 3 4 4 4 4 5 6 8 10 10 8 10 7 1 5 8 8 10 10 9 10 10 9 9 9 10 10 10 10
11 10 9 9 10 10 9 9 8 9 10 9 9 9 9 9 10 10 9 9 9 8 8 8 8 8 9 9 9 9 9 10 10 10 10 9 9 8 7 6 5 5 4 3 2 1 1 1 1 2 3 2 3 3 2 1 1 3 3 4 5 5 6 8 8 8 6 7 7 4 2 7 7 9 10 9 9 9 9 10 10 11 11 10 10
10 9 8 9 9 9 10 9 8 9 10 9 10 10 11 11 12 12 11 12 11 11 10 9 9 8 8 9 10 9 10 10 10 10 10 10 10 9 8 8 6 6 4 3 3 2 2 1 2 2 2 2 1 1 1 1 1 2 3 4 5 5 6 7 6 6 5 5 4 4 2 5 8 8 9 9 10 10 10 10 10 10 10 11 11
9 8 8 9 9 8 9 9 9 10 10 10 11 12 12 13 13 13 12 13 13 12 11 10 9 8 7 8 9 9 9 10 10 10 11 11 10 10 8 7 6 6 5 4 4 4 3 3 3 2 2 2 2 2 1 1 2 3 3 4 4 5 5 5 5 3 3 4 2 3 4 5 8 8 8 9 10 11 11 10 10 10 11 11 11
10 9 8 8 8 7 8 9 10 10 11 12 13 13 14 14 14 12 11 11 12 12 10 9 9 8 7 8 9 9 9 9 10 10 10 10 10 9 8 6 6 5 4 5 5 5 5 4 4 3 3 2 2 2 3 3 4 5 5 5 5 5 5 4 4 2 2 3 1 3 4 4 8 7 7 9 10 11 11 12 12 12 13 12 12
9 9 8 7 7 8 8 9 10 10 11 12 13 13 14 14 13 11 9 9 10 10 10 9 9 8 8 8 8 9 10 9 9 9 9 10 9 8 7 7 6 6 5 6 6 6 6 7 6 5 4 3 2 3 4 4 5 6 6 5 5 5 5 4 3 2 3 4 3 3 2 3 7 8 7 9 10 10 12 13 13 13 14 14 13
9 8 8 8 7 8 9 9 9 10 10 11 12 12 13 13 11 10 9 8 8 9 10 11 10 11 10 9 8 9 10 10 9 9 8 9 8 8 7 8 8 7 7 7 7 7 7 8 8 8 7 6 5 5 5 5 5 6 6 6 6 6 4 3 2 4 6 6 6 4 2 5 8 9 8 9 11 11 12 14 14 14 15 14 13
9 9 9 9 8 8 8 8 9 10 10 10 11 11 11 12 11 10 9 8 9 11 11 11 12 12 12 11 10 9 10 11 10 10 9 8 8 7 7 9 9 8 8 8 9 9 8 8 8 8 8 8 7 6 6 5 5 6 7 8 8 7 5 4 4 5 7 7 6 6 4 6 10 11 10 11 13 14 13 15 14 14 16 15 14
11 11 11 12 11 10 10 9 10 11 11 11 11 11 11 12 12 11 11 11 11 12 12 11 12 13 13 12 11 10 10 11 11 10 9 10 9 8 9 10 10 11 11 11 11 11 11 10 10 9 9 8 8 7 7 7 7 7 7 8 8 7 6 6 6 6 7 7 6 6 4 5 11 13 13 12 14 15 15 16 16 15 16 17 16
11 12 12 13 13 13 12 11 12 12 12 12 12 12 12 13 12 11 12 12 11 12 12 12 12 12 13 12 11 10 9 9 10 8 8 9 11 10 10 11 12 12 12 13 12 12 12 12 11 10 10 9 9 9 9 9 9 8 8 8 7 7 7 7 7 7 7 7 6 5 4 4 10 14 14 12 13 14 14 17 17 17 17 16 16
11 12 12 13 13 14 14 13 12 12 13 12 12 13 13 14 13 11 11 11 11 11 12 13 12 13 14 13 12 11 10 10 11 9 7 8 10 11 12 12 12 12 13 14 13 13 12 12 12 10 10 10 9 9 9 10 10 8 8 7 7 7 7 7 8 8 8 7 6 4 5 5 8 12 14 14 14 13 14 16 17 18 18 16 15
12 13 13 14 14 15 14 14 14 13 13 12 12 12 13 13 12 11 11 10 11 12 12 13 13 13 13 14 13 13 13 13 14 13 12 11 10 12 14 13 12 13 14 15 15 14 13 13 13 11 10 11 9 8 9 9 8 7 7 8 8 7 7 7 7 8 7 6 6 6 7 7 8 10 12 14 14 15 14 15 18 19 19 18 16
13 15 14 15 15 15 14 14 15 14 14 13 13 12 12 13 13 12 12 12 12 12 14 14 15 14 14 14 13 13 14 14 15 15 16 15 14 15 16 15 14 14 15 15 15 15 14 14 15 13 12 13 11 8 8 10 8 7 8 9 9 7 7 7 8 8 6 5 6 7 8 9 9 9 11 13 14 14 15 16 18 20 20 19 18
15 15 15 15 16 16 15 14 14 15 15 14 13 14 13 14 14 12 13 13 13 14 15 16 17 16 16 15 14 14 15 15 15 15 16 16 16 17 17 16 15 15 15 15 14 14 14 14 14 14 13 14 13 9 8 9 9 8 9 9 9 8 7 8 8 8 6 5 6 7 8 8 9 9 10 13 14 14 15 17 18 20 21 21 20
16 16 16 16 16 16 15 14 14 15 15 14 14 14 14 15 15 14 14 14 14 16 17 17 18 18 17 16 16 16 16 16 16 16 16 17 17 16 16 17 17 16 15 14 14 13 13 13 13 13 12 13 14 12 9 10 10 10 9 10 10 9 9 9 9 9 9 8 7 7 8 8 9 9 10 11 14 15 15 16 18 20 21 21 19
16 15 15 16 16 15 15 15 15 15 16 15 15 15 15 16 16 15 15 15 16 17 17 19 20 20 19 18 17 17 17 18 18 18 17 18 19 18 17 18 18 17 15 15 14 14 13 13 12 12 12 13 14 13 11 11 11 11 11 11 10 10 10 11 11 11 11 11 10 9 9 9 9 10 10 10 12 14 14 16 18 19 21 20 19
15 15 15 16 15 15 15 15 15 15 15 15 16 16 15 15 15 16 16 17 19 19 18 19 20 20 20 18 18 17 17 17 19 19 18 18 19 19 19 19 19 18 17 16 15 14 14 14 13 13 13 13 13 13 12 11 11 11 12 12 12 12 11 11 11 11 11 11 12 12 12 11 10 10 11 11 11 13 14 16 17 19 20 19 20
16 17 17 16 15 15 14 14 15 15 16 17 17 16 16 15 15 16 16 17 19 20 19 19 19 20 19 17 17 18 16 16 17 18 19 19 19 20 21 20 20 19 18 17 16 15 15 15 14 15 15 14 14 14 12 11 11 11 12 12 12 13 11 9 10 11 12 11 11 13 14 13 13 12 11 12 12 13 14 15 17 18 19 19 21
16 17 16 16 16 15 14 14 14 16 17 17 17 15 14 14 15 15 15 15 17 19 19 19 19 19 18 17 17 18 17 17 17 18 20 19 19 20 21 21 21 19 19 18 17 17 16 15 15 17 17 16 15 14 13 12 12 13 12 11 13 14 11 8 9 12 14 13 11 12 12 12 13 13 13 13 12 13 14 15 17 18 19 20 21
16 15 14 14 14 15 15 15 15 15 15 15 16 16 13 12 14 15 17 17 17 18 19 18 18 18 17 17 17 18 18 18 17 18 19 20 20 20 21 21 21 19 19 18 17 17 17 16 17 18 18 17 16 15 14 13 13 13 12 12 14 15 14 11 11 13 13 13 13 12 13 12 11 12 13 13 12 13 13 14 16 17 20 21 20
15 14 14 13 13 13 13 14 14 14 14 14 15 17 16 15 16 17 17 17 17 17 17 17 17 17 16 16 16 17 18 17 17 17 18 19 20 21 21 20 20 19 19 19 18 18 18 18 18 20 20 20 18 17 15 15 14 13 13 13 14 15 14 13 13 13 12 12 12 14 15 14 12 11 10 11 12 12 12 13 14 15 17 19 19
16 15 14 13 12 11 11 11 11 12 13 14 13 15 17 17 16 16 15 15 16 16 16 15 16 17 15 14 15 17 17 17 17 17 18 19 19 20 21 20 19 18 19 20 20 19 19 19 20 20 21 21 19 17 17 16 14 13 13 13 13 14 14 14 12 12 13 12 13 16 16 13 12 11 10 10 10 11 11 11 12 13 14 17 17
15 15 14 13 12 11 10 10 9 10 11 12 13 15 18 18 16 15 15 15 16 16 15 13 15 18 17 15 15 17 18 17 17 17 18 19 18 19 20 20 19 18 19 21 21 21 20 18 18 20 21 22 21 18 17 16 15 13 11 11 12 13 15 15 16 18 17 16 20 24 21 13 10 10 11 11 9 9 9 9 10 10 12 14 12
15 14 14 15 15 14 13 12 11 10 10 12 13 15 16 17 17 17 16 17 17 17 15 12 14 19 20 17 16 18 19 20 17 16 18 19 19 18 18 18 18 17 18 21 21 21 20 18 17 19 21 23 22 20 18 17 15 11 8 9 12 14 16 17 18 20 19 19 24 26 24 19 13 10 10 13 12 11 9 8 9 10 10 12 9
15 14 14 15 16 16 16 16 15 14 13 13 15 16 16 16 17 17 17 17 17 16 15 13 12 15 19 20 18 18 19 21 19 16 18 20 19 18 17 18 17 16 17 20 21 21 21 20 18 18 20 23 25 23 20 18 16 11 9 9 10 14 16 16 18 21 20 22 25 24 23 23 21 19 15 13 14 14 13 10 10 10 9 10 8
16 15 14 14 15 15 15 16 16 16 16 15 16 17 18 18 17 16 15 15 16 15 15 15 13 12 14 17 18 19 19 21 20 17 17 19 18 17 18 19 18 18 18 19 21 21 22 22 20 18 18 21 24 25 22 20 16 11 10 8 8 14 17 16 17 20 22 23 24 24 22 22 23 24 22 20 16 13 13 12 12 12 9 11 11
17 15 14 14 14 15 15 16 15 14 14 15 15 15 15 15 15 16 15 14 15 14 14 14 14 13 13 13 15 17 19 20 20 18 17 18 18 16 18 19 19 19 19 20 22 22 22 22 21 20 19 19 23 26 23 21 19 14 11 8 6 10 16 18 17 19 23 24 23 24 23 21 23 23 22 23 23 19 15 13 13 13 12 13 15
16 14 14 14 14 15 15 15 14 14 14 14 15 15 15 14 13 15 17 14 13 12 12 12 12 14 14 15 14 14 16 19 19 17 16 17 17 16 18 19 19 20 19 20 23 22 21 21 20 21 21 21 23 26 25 23 23 17 11 10 5 4 10 17 20 19 22 24 23 24 25 23 22 23 22 22 22 21 19 17 16 15 14 15 16
14 14 14 15 15 15 15 14 13 14 15 15 15 15 15 14 12 12 12 11 11 11 10 10 11 12 13 14 16 15 15 17 17 16 16 17 17 16 19 20 19 20 18 19 21 21 21 21 20 21 21 21 22 25 27 24 21 15 8 9 9 5 7 13 19 20 20 22 23 23 25 25 24 23 22 22 22 22 21 19 17 17 17 17 18
14 14 14 14 14 15 16 15 14 13 14 15 15 14 13 12 11 9 9 9 9 10 10 11 11 12 13 13 15 15 15 15 16 16 16 17 17 17 18 20 20 20 19 19 21 21 22 23 21 20 21 21 21 23 26 25 22 16 7 5 6 6 6 11 21 22 19 19 21 23 25 26 26 24 23 24 24 24 22 20 19 19 21 22 22
15 14 13 13 12 13 14 14 14 14 13 13 14 13 12 11 9 7 8 8 8 8 10 11 12 13 14 14 15 16 14 14 15 15 15 16 17 17 18 19 18 18 18 19 21 20 22 23 22 21 22 21 20 22 24 24 24 18 8 2 3 4 3 8 19 20 18 18 18 22 26 26 28 26 23 24 25 26 24 21 20 20 23 25 24
15 14 14 14 13 12 12 12 13 13 13 13 11 9 9 10 10 8 7 8 9 9 10 12 13 14 14 14 15 16 14 14 15 15 15 15 16 17 19 18 16 17 18 19 20 19 20 22 22 22 23 20 19 21 22 22 23 21 13 5 3 3 1 7 12 11 17 19 14 20 24 25 28 27 23 24 26 27 26 24 21 21 24 26 24
16 14 14 14 13 12 11 11 11 12 12 12 12 10 8 10 12 12 9 9 10 10 11 13 14 14 13 13 14 15 14 14 15 15 16 16 16 17 18 17 16 16 17 19 20 18 18 20 20 20 20 18 17 19 21 19 18 19 18 12 7 5 4 8 6 5 14 13 10 18 22 22 27 25 22 24 27 28 28 27 23 22 24 25 23
16 14 14 13 13 12 11 10 10 10 11 10 11 12 12 11 12 13 11 11 11 11 10 12 13 13 13 13 13 14 14 14 15 16 17 18 16 16 18 17 16 15 15 18 20 18 16 16 16 16 15 14 14 16 17 16 15 15 15 14 12 10 9 9 5 4 8 7 7 16 20 21 24 22 20 23 26 27 30 29 24 24 24 23 22
18 16 15 13 11 11 11 10 10 9 10 9 9 11 12 11 11 12 12 12 13 13 12 13 13 12 12 13 13 13 14 15 14 15 18 17 16 17 18 17 15 14 13 14 16 15 12 11 12 12 10 9 9 11 11 11 11 11 10 10 9 9 10 10 8 6 5 5 9 14 17 21 22 18 19 21 23 25 29 30 25 24 24 22 21
19 16 14 11 10 10 11 10 10 10 10 10 10 11 11 11 11 11 11 11 10 10 11 12 12 12 12 13 13 13 15 16 14 15 16 15 15 16 16 16 14 12 11 10 10 10 9 9 10 9 7 6 5 6 7 6 6 6 5 6 5 6 8 8 7 6 4 4 7 9 14 20 18 16 20 21 22 24 25 27 25 23 22 20 19
18 15 13 11 11 12 12 11 11 11 10 11 11 12 11 9 9 10 10 9 7 8 10 10 10 10 11 12 12 12 13 15 14 13 14 12 13 14 12 11 11 10 8 6 6 6 7 7 7 6 5 4 4 4 5 5 4 4 4 5 6 7 6 5 6 7 5 4 5 7 12 15 13 16 21 20 22 24 22 23 23 22 21 19 18
17 15 14 14 14 14 14 13 12 11 11 12 11 11 10 8 8 9 9 9 8 9 10 10 8 9 10 10 10 10 10 11 11 10 11 10 9 9 8 7 7 6 5 3 3 4 5 5 5 5 4 4 5 5 6 6 6 5 5 6 8 9 8 8 10 10 7 5 5 5 10 14 14 18 23 22 23 22 19 21 22 22 22 20 19
Wind_Direction
108 99 93 89 90 90 90 88 89 90 89 89 88 87 86 86 85 85 87 89 91 92 93 94 95 95 94 93 92 90 88 86 92 95 97 98 100 103 105 104 99 95 92 86 78 72 68 61 55 54 57 65 74 82 88 92 95 97 96 99 105 105 105 104 102 102 98 92 95 104 112 121 128 131 128 125 142 149 143 146 141 124 125 130 133
118 106 99 97 96 92 90 88 88 90 90 91 89 88 87 86 85 85 86 87 87 88 88 90 91 93 94 94 95 94 92 90 94 98 99 99 96 96 97 97 94 91 88 81 74 68 67 61 56 60 65 69 75 80 85 90 92 91 88 89 96 98 97 94 95 97 88 79 80 97 112 119 129 136 126 111 122 140 146 155 156 136 134 138 137
120 111 108 103 101 95 92 90 89 90 89 89 88 86 84 84 84 84 85 85 85 85 85 86 89 91 93 95 97 97 96 94 94 96 99 102 100 97 96 96 92 91 88 82 83 81 76 69 68 73 74 73 77 81 82 83 83 80 77 77 81 91 91 89 91 93 89 80 79 94 112 125 136 139 124 118 122 131 144 156 158 140 140 145 139
122 115 111 107 102 98 96 93 91 88 87 85 84 83 83 82 82 82 82 83 83 84 85 84 86 88 91 93 95 96 96 94 94 94 94 99 99 93 92 96 95 94 91 89 91 91 87 78 75 81 83 82 84 84 82 79 74 70 67 67 68 77 84 91 97 96 98 98 103 105 98 128 149 142 127 127 129 127 134 144 144 139 145 149 144
126 120 116 112 106 103 101 95 92 88 87 85 84 83 82 82 81 82 81 81 80 82 85 83 82 83 85 87 91 92 93 92 93 96 94 94 96 93 90 90 92 93 93 91 90 91 91 85 79 84 88 91 98 95 90 82 74 70 64 63 63 66 72 79 86 82 84 85 111 141 144 252 146 140 134 135 134 129 130 133 135 141 150 154 152
125 125 122 118 112 107 105 98 94 90 91 89 87 85 83 84 82 82 82 81 79 79 82 84 83 81 82 82 85 85 87 88 90 98 99 92 87 91 92 92 94 92 94 91 89 92 89 85 83 85 90 90 101 105 101 93 84 78 70 68 66 66 68 67 68 63 59 55 39 174 199 236 151 147 146 143 136 135 136 136 140 145 153 157 156
122 128 125 119 114 110 109 103 98 97 96 93 89 88 87 86 85 84 83 83 81 80 81 83 86 86 86 84 84 81 79 78 80 90 99 96 89 84 82 86 91 86 88 86 90 100 95 101 104 90 89 92 97 103 99 94 89 83 77 72 67 60 58 54 52 46 48 57 21 243 212 222 178 158 159 155 145 144 145 149 150 151 156 158 158
121 128 126 120 116 113 115 109 103 102 100 97 93 92 91 90 89 87 85 85 84 84 83 83 84 84 86 88 89 85 80 76 73 74 81 91 95 88 81 81 86 83 85 89 93 104 99 117 132 112 95 104 107 106 92 86 88 88 84 74 65 54 48 41 38 34 38 41 17 326 219 224 202 166 170 169 154 154 152 156 156 155 157 157 160
118 123 125 121 113 106 107 105 103 103 101 100 99 97 95 93 91 89 86 85 86 87 86 86 85 84 84 84 83 80 76 76 74 70 69 74 80 79 78 82 91 97 107 105 102 108 95 92 122 114 111 116 117 124 107 86 85 86 81 71 62 53 46 41 40 35 35 28 9 264 213 213 208 177 174 174 157 160 158 160 160 158 160 159 161
114 117 117 113 108 103 102 102 102 102 100 99 97 100 98 94 91 88 85 83 83 84 84 82 81 80 77 74 72 69 67 67 64 59 59 59 63 61 61 70 80 97 115 108 105 128 100 84 72 66 100 95 104 126 103 76 72 77 70 62 57 52 45 43 41 37 39 33 26 196 198 197 203 185 175 174 160 164 165 166 165 161 164 162 162
114 114 111 108 105 104 106 105 104 103 101 98 94 99 99 93 88 84 82 79 78 80 82 78 74 71 70 70 68 67 66 64 60 55 55 54 54 55 59 71 83 96 108 108 119 145 89 84 75 42 29 48 72 91 61 49 51 61 62 58 50 48 42 38 37 38 49 51 64 115 156 183 195 185 175 176 166 169 172 174 172 167 167 163 162
111 113 113 110 106 104 107 106 108 108 104 101 98 99 97 91 85 82 80 77 77 78 80 76 72 72 71 70 68 65 61 60 60 59 56 54 54 60 66 78 95 102 111 115 114 132 19 349 346 338 329 5 75 83 57 55 53 55 59 54 38 39 37 34 39 45 59 69 94 124 148 180 190 182 177 181 173 172 175 176 175 171 169 165 164
108 110 107 106 103 103 108 109 109 107 104 102 101 100 95 89 84 80 78 76 77 77 77 75 74 76 75 71 67 62 58 57 58 58 55 55 59 63 67 78 100 106 107 107 94 83 331 307 314 335 339 12 129 113 84 69 60 56 53 49 28 28 32 33 46 55 65 70 85 150 172 188 191 182 183 187 179 174 175 176 175 174 172 168 166
107 107 108 109 106 103 104 104 102 98 96 93 91 91 87 84 80 76 73 72 72 73 73 72 74 78 78 73 69 64 60 58 56 55 54 56 59 59 61 69 91 99 97 97 94 100 339 335 359 9 14 77 136 130 112 81 55 43 33 31 22 18 23 31 47 58 65 65 59 96 191 198 195 186 189 191 185 180 177 177 176 178 177 173 170
104 103 108 116 114 109 103 95 93 89 83 80 77 76 76 74 73 70 68 67 67 70 71 72 75 80 80 72 67 66 62 58 56 54 52 53 54 54 54 56 65 75 74 65 53 48 49 35 23 30 33 61 125 136 138 100 24 13 6 4 5 6 10 19 41 55 55 60 58 43 168 200 202 192 193 193 191 189 181 179 179 181 180 177 175
108 103 107 116 115 112 110 104 100 94 86 80 73 69 70 70 70 69 67 64 63 67 72 75 76 78 77 69 64 62 60 58 55 52 51 51 51 52 48 46 51 56 55 38 25 15 9 4 359 13 18 26 76 112 142 157 353 1 2 354 354 358 3 8 27 50 41 46 64 26 16 208 209 199 197 195 194 195 189 184 183 185 185 182 181
126 118 115 116 115 110 108 105 102 99 95 88 80 75 73 73 72 70 67 62 60 65 70 73 73 71 66 60 57 54 53 53 53 49 47 49 50 49 45 44 48 47 42 33 25 14 3 349 335 328 329 346 357 12 36 59 46 28 16 2 352 354 4 5 14 39 31 36 61 344 337 237 214 203 199 198 198 199 194 188 188 193 192 191 190
136 133 125 120 117 108 100 96 96 94 92 90 87 84 81 79 76 73 69 63 61 63 63 63 64 59 51 50 50 46 45 47 49 47 45 46 46 46 46 49 49 46 42 39 38 34 27 15 1 337 318 312 324 355 15 28 34 29 22 14 2 356 358 352 353 357 348 18 10 306 322 259 219 208 201 200 201 202 197 190 193 196 196 199 199
129 127 120 116 110 101 98 96 94 90 87 86 85 86 84 80 76 71 66 62 59 60 57 53 54 49 44 47 47 41 43 45 46 46 44 41 42 46 48 51 51 51 52 49 45 37 32 26 24 19 7 353 352 13 19 23 26 24 22 16 11 2 348 334 338 337 332 338 317 293 297 244 220 214 204 201 203 204 200 195 197 201 204 206 203
119 116 106 103 103 99 95 93 90 86 84 83 82 84 82 75 70 65 57 53 53 56 55 53 52 47 42 42 44 41 43 45 43 42 39 35 39 45 43 43 44 48 49 46 40 30 24 19 20 25 30 31 30 33 33 32 29 25 22 12 6 359 338 309 324 342 336 326 305 292 269 222 217 214 203 202 203 206 207 199 198 205 214 215 208
110 108 95 91 96 99 95 92 86 84 84 82 81 83 79 73 71 68 62 60 60 60 57 56 53 47 41 38 41 45 49 49 45 43 39 38 42 43 42 41 42 45 43 42 39 34 29 23 20 20 24 32 36 37 36 31 18 14 12 4 357 349 333 313 324 341 335 323 299 284 272 220 210 207 207 208 203 206 210 207 206 208 216 221 216
103 101 91 86 89 95 95 92 88 84 83 84 83 83 78 72 73 73 70 71 68 62 59 60 53 46 43 37 36 39 46 49 47 48 45 46 49 48 51 49 46 47 45 44 41 40 39 33 30 27 26 31 35 36 36 27 14 5 356 348 346 341 330 320 325 332 326 321 304 276 263 216 203 204 213 218 211 211 210 211 216 211 217 226 224
93 94 91 88 88 90 88 86 86 83 82 85 84 82 77 72 73 73 73 75 69 61 62 65 58 52 49 43 37 34 37 42 40 43 45 48 51 54 54 48 45 47 46 42 39 39 38 34 34 34 34 35 37 39 38 33 22 10 358 350 348 342 332 326 325 326 321 321 313 268 245 216 204 211 222 229 226 223 216 216 220 213 217 228 226
83 87 89 86 85 84 80 80 81 81 82 81 80 80 76 72 71 71 71 71 68 63 63 65 62 58 56 52 49 45 46 46 43 40 40 43 47 49 47 43 40 42 41 37 36 34 31 31 30 29 30 30 33 36 33 32 28 18 10 4 359 352 341 330 326 326 323 320 315 280 254 240 225 226 232 240 240 236 226 219 221 219 219 223 224
79 83 84 80 79 77 75 77 79 80 77 74 76 78 74 69 67 68 68 67 68 65 60 58 57 55 56 57 58 61 61 61 59 56 56 54 54 52 49 48 46 44 42 40 38 35 33 32 29 30 28 22 21 25 24 23 24 19 11 1 355 353 347 337 334 332 327 315 303 296 280 263 254 245 241 244 243 240 235 223 223 226 223 222 225
79 80 79 76 75 74 73 74 76 77 76 74 76 77 74 70 66 67 67 65 64 61 56 55 56 55 55 56 59 64 66 65 65 63 65 66 66 63 57 55 54 51 48 45 42 40 41 38 37 40 35 27 22 19 19 19 15 9 5 359 352 348 343 336 337 335 331 319 300 296 286 275 270 261 252 251 249 243 240 233 229 230 230 228 227
80 78 75 74 71 71 71 71 74 75 74 73 75 77 76 70 67 70 67 61 59 59 60 61 60 59 57 55 56 61 63 64 64 63 64 66 66 63 59 57 56 54 51 48 46 46 47 45 44 42 36 33 30 23 13 12 6 356 352 352 352 349 344 338 335 334 333 326 309 296 283 274 271 269 265 260 256 251 246 241 237 234 235 234 231
79 74 71 69 68 70 72 75 76 74 73 74 76 76 74 71 71 73 69 62 60 63 66 65 61 58 57 56 58 62 63 63 62 60 61 61 60 59 59 58 58 58 56 52 48 48 47 44 43 38 33 34 35 32 25 20 15 7 356 347 345 340 336 337 334 330 326 323 317 304 290 279 274 274 275 267 258 255 254 248 243 242 240 240 241
74 70 69 67 68 72 77 80 80 80 79 79 76 74 74 74 73 72 70 66 65 67 68 65 61 58 57 58 61 61 64 65 62 60 59 60 60 58 58 59 60 58 56 52 47 46 45 42 40 36 33 36 38 35 34 35 30 27 20 8 356 342 330 328 329 327 320 314 311 308 302 294 285 282 281 273 261 256 258 256 249 248 247 247 248
70 67 68 70 71 73 77 80 81 83 81 76 73 74 73 70 70 72 72 72 71 70 70 67 63 60 58 60 60 57 61 65 63 59 56 59 62 59 57 59 60 56 52 51 48 47 47 45 43 40 38 39 39 36 39 41 32 25 19 15 8 355 338 324 325 332 329 319 313 309 303 298 291 285 282 276 267 260 260 260 256 253 253 252 251
74 68 67 66 65 66 70 75 76 76 73 72 73 74 71 69 73 75 75 75 74 71 70 67 63 59 55 55 55 53 58 66 66 59 54 59 62 59 56 57 57 53 50 50 47 47 47 48 46 42 39 39 41 43 45 40 28 16 10 14 13 4 349 328 326 336 337 330 325 320 310 300 293 288 285 281 275 268 265 264 263 262 261 260 259
77 72 71 69 67 66 69 75 76 73 71 73 74 71 73 79 80 77 77 78 76 71 68 65 60 56 52 49 48 49 57 65 66 60 56 59 61 58 55 53 52 48 48 46 44 45 45 47 45 41 41 44 47 46 41 34 25 14 9 16 15 11 6 347 335 337 336 333 331 333 326 311 298 291 288 287 284 279 275 273 273 271 270 268 266
85 83 82 79 77 75 76 81 82 79 76 76 76 73 79 91 87 80 82 81 76 70 65 62 57 54 51 48 45 46 54 60 61 58 55 55 56 54 52 50 47 45 46 43 41 42 41 42 39 39 44 45 43 38 31 28 22 12 9 14 11 11 11 358 338 331 330 330 329 329 329 322 308 297 291 291 290 289 285 282 282 278 278 275 270
98 94 88 85 88 87 87 88 88 87 83 80 80 79 82 92 91 85 82 76 71 66 62 61 55 51 51 51 47 42 45 51 54 55 52 50 51 50 49 47 44 44 43 38 39 42 39 37 32 37 44 41 37 34 28 22 17 5 1 6 8 13 16 6 348 335 331 331 330 329 330 325 315 304 297 298 293 293 293 290 290 287 288 287 279
100 94 87 86 90 89 88 88 88 93 94 89 85 85 85 88 88 82 74 63 58 57 58 60 53 48 52 57 54 45 42 44 49 52 50 47 47 47 46 46 45 45 42 38 42 44 39 34 30 36 40 37 35 33 28 21 13 1 355 2 13 22 28 24 16 15 18 17 17 12 3 343 321 307 298 302 299 294 295 292 297 298 301 302 294
96 89 83 81 80 77 75 75 77 84 92 89 88 93 88 84 80 71 62 52 48 47 52 61 56 50 54 62 61 53 47 43 43 49 51 49 47 46 46 45 45 47 44 41 44 42 37 34 33 37 38 35 34 32 27 22 13 3 355 7 26 33 36 39 41 44 47 43 39 38 34 14 335 315 299 297 303 302 297 295 302 307 312 316 315
94 86 80 77 75 74 72 71 72 76 81 81 87 95 89 80 74 65 57 51 49 47 51 61 58 52 55 62 61 54 49 43 41 46 51 53 52 50 47 43 43 47 46 44 46 44 40 40 38 40 39 35 33 29 25 20 15 8 359 18 39 41 41 45 45 46 50 44 38 40 41 34 21 4 325 300 296 297 301 303 309 312 320 333 337
92 84 79 77 75 73 73 73 75 79 82 81 86 95 93 84 75 68 66 62 59 57 55 55 52 49 53 58 57 54 51 46 44 49 51 52 55 54 47 42 45 47 43 43 47 45 41 39 36 37 38 35 31 27 23 19 13 8 9 32 52 47 45 48 45 46 46 40 36 35 37 39 38 35 18 341 311 297 296 302 317 324 338 357 351
91 84 79 78 77 76 75 76 77 79 82 82 87 95 93 86 79 75 75 74 69 64 57 51 46 44 46 51 52 53 55 50 47 50 48 44 50 52 44 43 48 45 39 40 44 43 38 35 33 31 32 33 30 26 22 17 11 6 13 38 64 49 46 49 44 44 41 34 33 30 29 34 37 37 34 23 6 340 319 314 326 335 348 5 355
92 86 81 76 76 77 75 73 72 75 81 81 82 85 82 75 70 69 74 78 72 62 56 54 51 44 39 40 44 48 52 49 45 46 44 41 44 45 41 44 49 44 40 39 40 42 39 36 34 29 27 29 28 27 23 16 14 12 23 47 80 52 40 43 40 37 36 30 27 27 24 27 32 33 32 29 25 21 10 354 347 344 343 351 349
94 90 85 79 76 74 73 69 67 70 73 75 75 73 70 63 60 67 74 75 68 59 59 63 58 49 43 42 42 43 44 44 44 43 42 42 43 43 38 42 48 44 42 39 39 43 41 38 38 32 29 28 28 29 24 22 20 11 14 24 38 44 24 32 33 28 29 26 23 23 20 21 24 25 25 24 22 20 20 17 8 359 352 345 341
100 98 93 87 80 76 75 72 71 72 71 72 74 73 68 62 64 75 79 72 64 59 60 67 64 56 52 49 48 47 41 39 42 40 38 40 41 40 35 39 46 43 41 38 36 39 37 35 37 35 33 30 29 30 27 28 23 5 348 359 6 346 340 13 19 15 19 19 17 18 16 14 14 15 16 15 13 9 8 11 9 4 360 352 345
110 108 101 95 90 85 80 77 77 78 78 77 76 76 70 62 66 81 87 77 66 63 67 71 70 64 61 58 53 48 42 38 39 38 37 38 38 38 34 34 43 43 39 37 33 35 34 31 35 36 32 28 29 31 30 31 25 13 360 1 4 340 335 357 355 354 6 10 8 10 9 7 6 8 10 8 4 1 360 1 0 359 359 358 352
121 118 112 106 102 96 87 81 78 77 81 81 76 75 71 65 65 78 83 73 65 72 79 75 68 64 61 58 50 44 43 42 38 38 38 37 37 39 33 30 40 43 37 35 33 34 34 31 36 38 30 26 28 31 31 29 27 26 22 348 349 3 7 342 334 335 351 359 359 2 2 2 1 1 4 5 359 354 353 353 354 356 357 359 355
133 129 120 115 113 108 98 87 81 81 85 82 77 73 71 72 69 72 79 72 70 79 83 74 64 60 56 54 48 42 45 46 41 40 42 41 40 38 33 33 43 44 38 37 36 37 36 34 37 36 30 28 30 30 28 26 28 31 33 30 9 20 320 316 322 321 338 347 350 355 357 358 356 355 357 360 355 349 347 347 348 353 357 359 357
142 137 127 122 122 119 111 100 95 97 98 91 85 82 78 73 63 64 77 76 74 83 84 74 64 59 54 54 52 47 48 48 44 43 43 46 45 38 35 42 49 45 40 39 37 36 35 34 33 28 28 32 31 27 25 24 26 28 31 34 28 10 316 320 331 316 330 337 341 348 351 352 352 352 352 353 350 347 344 343 343 347 354 358 357
149 148 141 135 133 132 127 121 116 114 115 108 97 88 82 77 63 62 73 76 76 86 86 77 69 62 57 54 54 54 51 49 47 44 43 45 44 38 36 44 51 49 47 41 34 35 37 34 26 19 25 32 27 23 22 22 22 22 23 23 18 9 352 343 344 316 324 326 328 340 344 345 347 348 346 345 345 344 341 338 338 342 348 354 354
157 159 155 147 146 146 140 135 130 128 129 124 111 100 93 90 79 72 77 79 79 81 80 78 73 64 57 53 53 55 49 46 50 44 39 41 40 37 34 38 49 53 51 44 34 33 40 38 24 20 33 38 24 17 18 20 16 13 14 12 7 358 347 342 335 325 320 311 320 331 335 335 338 340 339 338 338 338 337 333 331 335 341 347 349
160 162 159 155 161 160 151 146 143 140 139 135 123 114 109 104 96 92 92 90 87 85 82 78 72 64 59 55 53 51 42 41 47 43 38 40 40 40 36 36 49 56 51 48 39 31 33 38 34 32 42 43 31 15 9 16 14 4 360 355 342 323 319 318 314 315 305 292 312 323 325 328 330 328 328 329 332 333 333 331 327 327 335 340 343
162 163 166 170 174 172 167 165 162 154 146 144 134 123 123 118 108 110 111 111 112 108 101 89 79 71 67 62 53 45 38 37 44 46 44 47 49 47 41 37 47 57 58 50 34 17 11 18 24 25 29 22 15 2 345 341 346 343 327 317 306 297 296 289 282 291 286 259 272 294 305 314 317 317 319 321 324 328 329 329 328 326 329 334 336
167 169 175 181 182 181 180 178 176 170 159 153 146 136 135 128 117 117 119 121 121 119 116 107 99 91 79 69 55 47 47 45 45 46 48 51 51 46 39 32 34 43 55 47 357 344 339 338 344 343 337 330 326 323 317 310 309 307 301 296 293 290 282 278 284 286 273 249 258 275 286 293 296 300 308 312 314 319 321 323 326 326 327 327 327